Torna al catalogo

JASON 3

AttivoScienzaLEO
NORAD 41240·PAYLOAD·🇺🇸 United States

Lanciato Jan 17, 2016 da Vandenberg Space Force Base

Loading…

Prossimi Passaggi (prossime 24 ore)

TLE

AggiornatoSource: CelesTrak SupGP

Epoca: Sep 14, 2026, 00:00 UTC

1 41240C 16002A   26257.00000000 -.00000024  00000+0 -94568-4 0  2572
2 41240  66.0415 299.1143 0008610 268.2425  34.0422 12.87627795    18

Traccia JASON 3 in tempo reale con AllMySat

Download on the App Store